Home > Weather > Khon Kaen > Past weeks

Flag for Thailand Weather for the Past 2 Weeks in Khon Kaen, Thailand

Now
84 °F

Broken clouds.


Feels Like: 88 °F
Forecast: 83 / 99 °F
Wind: 6 mph from North

Location: Khon Kaen Airport

Current Time: May 2, 2016 at 6:37:24 PM

Latest Report: May 2, 2016 at 6:00 PM


Visibility: N/A

Pressure: 29.74 "Hg

Humidity: 62%

Dew Point: 70 °F

Location of Khon KaenLocation

Historic Weather in Khon Kaen — Graph

°F

Khon Kaen Temperature Yesterday

Maximum temperature yesterday: 93 °F (at 1:00 PM)
Minimum temperature yesterday: 73 °F (at 6:00 AM)
Average temperature yesterday: 85 °F

High & Low Weather Summary for the Past Weeks

 TemperatureHumidityPressure
High108 °F (Apr 18, 1:00 PM)100% (Apr 30, 6:00 AM)30.01 "Hg (Apr 30, 6:00 AM)
Low73 °F (Apr 20, 3:00 PM)25% (Apr 18, 3:00 PM)29.59 "Hg (Apr 23, 5:00 PM)
Average90 °F57%29.76 "Hg
* Reported Apr 17 5:00 PM — May 2 5:00 PM, Khon Kaen, Weather by CustomWeather, © 2016

Note: Actual official high and low records may vary slightly from our data, if they occured in-between our weather recording intervals... More about our weather records

Advertising

Khon Kaen Weather History for the Previous 24 Hours

Scroll right to see more
 ConditionsComfort  
Time TempWeatherWind HumidityBarometerVisibility
5:00 PM
Mon, May 2
86 °FBroken clouds.9 mph55%29.74 "HgN/A
2:00 PM100 °FPassing clouds.7 mph40%29.74 "HgN/A
1:00 PM100 °FPassing clouds.3 mph42%29.77 "HgN/A
12:00 PM99 °FPassing clouds.5 mph42%29.83 "Hg6 mi
11:00 AM95 °FClear.6 mph50%29.83 "Hg6 mi
10:00 AM93 °FClear.6 mph53%29.86 "Hg6 mi
9:00 AM90 °FClear.6 mph67%29.86 "Hg5 mi
8:00 AM86 °FClear.7 mph75%29.83 "Hg5 mi
7:00 AM81 °FClear.3 mph84%29.80 "Hg5 mi
6:00 AM79 °FSunny.3 mph84%29.77 "Hg10 mi
1:00 AM81 °FClear.No wind79%29.77 "Hg10 mi
12:00 AM82 °FClear.2 mph70%29.77 "Hg10 mi
11:00 PM
Sun, May 1
82 °FClear.1 mph70%29.77 "Hg10 mi
10:00 PM84 °FClear.2 mph66%29.80 "Hg10 mi
8:00 PM86 °FPassing clouds.3 mph62%29.74 "HgN/A
7:00 PM88 °FPassing clouds.5 mph59%29.74 "HgN/A
6:00 PM91 °FPassing clouds.5 mph52%29.71 "HgN/A
Weather by CustomWeather, © 2016

See weather overviewHow to use our weather pages